Αρχική σελίδα
METAR-TAF:

METAR-TAF

Αεροδρόμια :

Fremont Municipal Airport

Fremont, Νεμπράσκα, Ηνωμένες Πολιτείες Αμερικής

γεωγραφικό πλάτος: 41-27N, γεωγραφικό μήκος: 096-31W, υψόμετρο: 379 μ

Παρών καιρός

Η αναφορά έγινε 15 λεπτά πριν, στις 17:55 UTC
Άνεμος 9 kt από Ν/ΝΔ με ριπές μέχρι 14 kt
Θερμοκρασία -1°C
Υγρασία 54%
Πίεση 1026 hPa
Ορατότητα: 16.1 χλμ
Καθαρός ουρανός

METAR: KFET 181755Z AUTO 21009G14KT 10SM CLR M01/M09 A3029 RMK AO2 T10151092 11015 21118

Χρόνος: 12:10 (18:10 UTC)


TAF: λείπει

Μετεωρολογικές αναφορές και προγνώσεις για περισσότερα από 4000 αεροδρόμια (δελτία METAR και TAF).

Οι διαθέσιμοι σταθμοί απεικονίζονται στο χάρτη με κίτρινες και κόκκινες κουκκίδες.

Μετακινήστε το ποντίκι πάνω από τις κουκκίδες για να δείτε το όνομα του σταθμού.

Στη συνέχεια, κάντε κλικ για να δείτε τις μετεωρολογικές αναφορές και τις προγνώσεις καιρού.

Για να αλλάξετε το χάρτη: κάντε κλικ στα πράσινα κουμπιά με τον μαύρο σταυρό για να ζουμάρετε, στο πράσινο κουμπί με την παύλα για να αφαιρέσετε το ζουμ ή στα πράσινα βέλη για να αντιπαραβάλλετε χάρτες.


METAR-TAF: